{"data":{"norad_id":57179,"intl_designator":"2023-091P","name":"2023-091P","alt_names":[],"object_type":"PAYLOAD","status":"ACTIVE","operator":null,"country":"CIS","launch_date":"2023-06-27","launch_site_code":"VOSTO","launch_vehicle":null,"mission":null,"orbit_class":"UNKNOWN","rcs_meters":null,"size_class":null,"mass_kg":null,"dimensions":null,"purposes":[],"wikipedia_slug":null,"has_3d_model":false,"image_url":null,"decayed_at":null,"tle_current":{"epoch":"2026-09-21T22:18:01.533888Z","epoch_age_seconds":82468,"freshness":"FRESH","line1":"1 57179U 23091P   26264.92918442  .00002284  00000+0  11838-3 0  9992","line2":"2 57179  97.4995 319.9510 0015574 144.7238 215.5030 15.17105962178451","mean_motion":15.17105962,"eccentricity":0.0015574,"inclination_deg":97.4995,"raan_deg":319.951,"arg_perigee_deg":144.7238,"mean_anomaly_deg":215.503,"bstar":0.00011838,"rev_number":17845,"period_min":94.917562521582,"perigee_km":503.85769985267,"apogee_km":525.32717350203,"semimajor_km":6892.7294366773,"source":"CELESTRAK","updated_at":"2026-09-22T09:00:26.075830Z"}}}